Location: Davayat
(45.9471°N, 3.1105°E)
Time: 15:59:47
(UTC+00:00)

Cosmos 1656 Rocket - Pass Details

Date: 01 December 2020
Orbit: 796 x 846 km, 71.1° (Epoch: 17 January)

Event Time Altitude Azimuth Distance (km) Brightness Sun altitude
Rises 17:02:31 0° 339° (NNW) 3,408 6.9 -9.9°
Reaches altitude 10° 17:05:17 10° 350° (N) 2,464 6.0 -10.4°
Maximum altitude 17:10:15 31° 51° (NE) 1,442 4.4 -11.2°
Drops below altitude 10° 17:15:08 10° 113° (ESE) 2,425 5.7 -12.0°
Enters shadow 17:17:28 - 122° (ESE) 3,224 6.4 -12.4°
